Flag for Norway Weather past 2 weeks in Harstad, Norway

Now
54 °F

Partly sunny.


Feels Like: 52 °F
Forecast: 48 / 50 °F
Wind: 6 mph from North

Location: Evenes

Current Time: Aug 2, 2015 at 11:21:50 AM

Latest Report: Aug 2, 2015 at 10:50 AM


Visibility: N/A

Pressure: 29.89 "Hg

Humidity: 88%

Dew point: 50 °F

Location of HarstadLocation

Historic Weather in Harstad — Graph

°F

Harstad temperature yesterday

Maximum temperature yesterday: 55 °F (at 12:50 PM)
Minimum temperature yesterday: 52 °F (at 12:20 AM)
Average temperature yesterday: 52 °F

Past Weeks' High & Low Weather Summary

 TemperatureHumidityPressure
High70 °F (Jul 29, 1:50 PM)100% (Jul 20, 5:20 PM)29.92 "Hg (Jul 20, 5:20 PM)
Low46 °F (Jul 23, 3:50 AM)32% (Jul 18, 3:20 PM)29.39 "Hg (Jul 27, 1:50 PM)
Average55 °F82%29.66 "Hg
* Reported Jul 18 9:50 AM — Aug 2 9:50 AM, Harstad, Weather by CustomWeather, © 2015

Note: Actual official high and low records may vary slightly from our data, if they occured in-between our weather recording intervals... More about our weather records

Advertising

Harstad weather history for previous 24 hours

 ConditionsComfort  
Time TempWeatherWind HumidityBarometerVisibility
9:50 AM
Sun, Aug 2
54 °FBroken clouds.5 mph94%29.89 "HgN/A
9:20 AM52 °FDrizzle. Broken clouds.5 mph94%29.89 "HgN/A
8:50 AM52 °FDrizzle. Mostly cloudy.5 mph94%29.89 "HgN/A
8:20 AM52 °FMostly cloudy.3 mph94%29.89 "HgN/A
7:50 AM52 °FOvercast.5 mph94%29.89 "HgN/A
7:20 AM52 °FDrizzle. Cloudy.3 mph94%29.89 "HgN/A
6:50 AM52 °FLight rain. More clouds than sun.3 mph94%29.89 "HgN/A
6:20 AM52 °FLight rain. More clouds than sun.5 mph94%29.89 "HgN/A
5:50 AM50 °FDrizzle. Mostly cloudy.3 mph100%29.89 "HgN/A
5:20 AM50 °FDrizzle. Overcast.3 mph100%29.89 "HgN/A
4:50 AM50 °FLight rain. Overcast.3 mph100%29.89 "HgN/A
4:20 AM50 °FDrizzle. Overcast.2 mph100%29.89 "HgN/A
3:50 AM50 °FDrizzle. Overcast.2 mph100%29.89 "HgN/A
3:20 AM50 °FDrizzle. Overcast.2 mph100%29.89 "HgN/A
2:50 AM50 °FLight rain. Mostly cloudy.2 mph100%29.89 "HgN/A
2:20 AM50 °FDrizzle. Overcast.3 mph100%29.89 "HgN/A
1:50 AM50 °FDrizzle. Overcast.2 mph94%29.89 "HgN/A
1:20 AM50 °FDrizzle. Mostly cloudy.2 mph94%29.92 "HgN/A
12:50 AM50 °FDrizzle. Overcast.3 mph100%29.92 "HgN/A
11:50 PM
Sat, Aug 1
52 °FMostly cloudy.3 mph94%29.92 "HgN/A
11:20 PM52 °FLow clouds.3 mph94%29.92 "HgN/A
10:50 PM52 °FCloudy.3 mph94%29.92 "HgN/A
10:20 PM52 °FOvercast.3 mph94%29.92 "HgN/A
9:50 PM52 °FMostly cloudy.5 mph94%29.92 "HgN/A
8:50 PM52 °FPartly sunny.6 mph94%29.92 "HgN/A
7:50 PM52 °FDrizzle. Broken clouds.5 mph94%29.92 "HgN/A
7:20 PM52 °FDrizzle. Partly sunny.5 mph100%29.92 "Hg4 mi
6:50 PM52 °FDrizzle. Broken clouds.5 mph94%29.92 "Hg4 mi
5:50 PM52 °FMixture of precip. Broken clouds.3 mph100%29.92 "HgN/A
5:20 PM52 °FDrizzle. Broken clouds.5 mph94%29.92 "Hg5 mi
4:50 PM54 °FFog.6 mph88%29.92 "Hg4 mi
4:20 PM54 °FDrizzle. Overcast.6 mph94%29.92 "Hg6 mi
3:50 PM54 °FLight rain. Broken clouds.6 mph94%29.92 "Hg5 mi
3:20 PM54 °FLight rain. Broken clouds.5 mph94%29.92 "Hg3 mi
2:50 PM54 °FBroken clouds.7 mph94%29.92 "HgN/A
2:20 PM54 °FMostly cloudy.7 mph88%29.92 "HgN/A
1:50 PM54 °FMostly cloudy.7 mph88%29.92 "HgN/A
12:50 PM55 °FBroken clouds.5 mph88%29.89 "HgN/A
11:50 AM54 °FBroken clouds.6 mph94%29.89 "HgN/A
Weather by CustomWeather, © 2015

See weather overviewHow to use our weather pages